UPS270 CYYT-EIDW

Flight info

Callsign UPS270
Flight time N/A
Altitude 35000
Route YYT DCT NICSO DCT 48N050W 50N040W 52N030W 54N020W DCT DOGAL DCT BEXET/N0490F350 DCT DEVOL DCT OLAPO OLAPO3R
Aircraft B748/H-SDE3FGHIM1M2RWXY/LB1

Departure

Time 2026-04-25 20:06
Airport St. John's International Airport (CYYT)

Arrival

Time N/A
Airport Dublin Airport (EIDW)
Time Latitude Longitude Altitude Speed Heading
2026-04-25 20:06 47.59278 -52.88050 4630 ft 286 kts 168°
2026-04-25 20:06 47.57304 -52.87619 5131 ft 288 kts 168°
2026-04-25 20:06 47.55327 -52.87125 5632 ft 289 kts 166°
2026-04-25 20:06 47.52680 -52.86360 6243 ft 291 kts 165°
2026-04-25 20:07 47.50814 -52.85412 6668 ft 284 kts 141°
2026-04-25 20:07 47.49430 -52.83448 7069 ft 272 kts 114°
2026-04-25 20:07 47.48878 -52.81785 7355 ft 263 kts 99°
2026-04-25 20:07 47.48653 -52.79175 7741 ft 254 kts 82°
2026-04-25 20:08 47.48702 -52.76553 8101 ft 256 kts 81°
2026-04-25 20:08 47.48769 -52.73916 8486 ft 258 kts 81°
2026-04-25 20:08 47.48826 -52.71246 8846 ft 261 kts 81°
2026-04-25 20:08 47.48874 -52.68587 9182 ft 262 kts 82°
2026-04-25 20:09 47.48926 -52.65846 9474 ft 264 kts 81°
2026-04-25 20:09 47.48978 -52.63122 9755 ft 266 kts 82°
2026-04-25 20:09 47.49029 -52.60418 10023 ft 267 kts 82°
2026-04-25 20:09 47.49081 -52.57662 10310 ft 269 kts 82°
2026-04-25 20:10 47.49131 -52.54896 10572 ft 270 kts 82°
2026-04-25 20:10 47.49181 -52.52119 10844 ft 271 kts 82°
2026-04-25 20:10 47.49231 -52.49323 11089 ft 272 kts 82°
2026-04-25 20:10 47.49281 -52.46519 11340 ft 273 kts 82°
2026-04-25 20:11 47.49330 -52.43706 11584 ft 274 kts 82°
2026-04-25 20:11 47.49378 -52.40878 11822 ft 275 kts 82°
2026-04-25 20:11 47.49426 -52.38045 12054 ft 276 kts 82°
2026-04-25 20:11 47.49473 -52.35198 12285 ft 277 kts 82°
2026-04-25 20:12 47.49520 -52.32346 12490 ft 278 kts 82°
2026-04-25 20:12 47.49566 -52.29485 12728 ft 279 kts 82°
2026-04-25 20:12 47.49612 -52.26617 12925 ft 280 kts 82°
2026-04-25 20:12 47.49642 -52.24713 13069 ft 280 kts 82°
2026-04-25 20:13 47.49701 -52.20855 13305 ft 281 kts 82°
2026-04-25 20:13 47.49745 -52.17956 13484 ft 282 kts 82°
2026-04-25 20:13 47.49788 -52.15057 13649 ft 283 kts 82°
2026-04-25 20:13 47.49832 -52.12133 14032 ft 285 kts 82°
2026-04-25 20:14 47.49873 -52.09197 14647 ft 286 kts 82°
2026-04-25 20:14 47.49916 -52.06239 15215 ft 289 kts 82°
2026-04-25 20:14 47.49958 -52.03253 15763 ft 292 kts 82°
2026-04-25 20:14 47.50057 -52.00253 16305 ft 289 kts 71°
2026-04-25 20:15 47.50644 -51.97500 16846 ft 285 kts 63°
2026-04-25 20:15 47.51368 -51.94722 17388 ft 287 kts 62°
2026-04-25 20:15 47.52091 -51.91994 17877 ft 290 kts 62°
2026-04-25 20:15 47.52819 -51.89202 18355 ft 292 kts 62°
2026-04-25 20:16 47.53546 -51.86388 18831 ft 294 kts 62°
2026-04-25 20:16 47.54290 -51.83518 19319 ft 295 kts 62°
2026-04-25 20:16 47.55019 -51.80707 19801 ft 297 kts 62°
2026-04-25 20:16 47.55760 -51.77847 20268 ft 298 kts 61°